Station 44009 (LLNR 168) - DELAWARE BAY 26 NM Southeast of Cape May, NJ Image indicating link to RSS feed of recent meteorological observations for station 44009


Conditions at 44009 as of
(2:00 pm EDT)
1800 GMT on 05/26/2024:
     

Click on the graph icon in the table below to see a time series plot of the last five days of that observation.

5-day plot - Wind Direction Wind Direction (WDIR): SE ( 140 deg true )
5-day plot - Wind Speed Wind Speed (WSPD): 5.8 kts
5-day plot - Wind Gust Wind Gust (GST): 5.8 kts
5-day plot - Atmospheric Pressure Atmospheric Pressure (PRES):29.91 in
5-day plot - Pressure Tendency Pressure Tendency (PTDY):+0.00 in ( Steady )
5-day plot - Air Temperature Air Temperature (ATMP): 65.3 °F
5-day plot - Water Temperature Water Temperature (WTMP): 65.7 °F
5-day plot - Dew Point Dew Point (DEWP): 65.3 °F
5-day plot - Wind Speed at 10 Meters Wind Speed at 10 meters (WSPD10M): 5.8 kts
5-day plot - Wind Speed at 20 Meters Wind Speed at 20 meters (WSPD20M): 5.8 kts
5-day plot -  Wind Speed, Wind Gust and Atmospheric Pressure Combined plot of Wind Speed, Gust, and Air Pressure
Supplemental Measurements
Highest 1-minute Wind Speed
Time (EDT)5-day plot - 1-Minute Wind Speed WSPD 5-day plot - 1-Minute Wind Direction WDIR
1:51 pm 5.8 kts-
Previous observations
TIME
(EDT)
5-day plot - Wind Direction
WDIR
 
5-day plot - Wind Speed
WSPD
kts
5-day plot - Wind Gust
GST
kts
5-day plot - Wave Height
WVHT
ft
5-day plot - Dominant Wave Period
DPD
sec
5-day plot - Average Wave Period
APD
sec
5-day plot - Mean Wave Direction
MWD
 
5-day plot - Atmospheric Pressure
PRES
in
5-day plot - Pressure Tendency
PTDY
in
5-day plot - Air Temperature
ATMP
°F
5-day plot - Water Temperature
WTMP
°F
5-day plot - Dew Point
DEWP
°F
5-day plot - Salinity
SAL
psu
5-day plot - Visibility
VIS
nmi
5-day plot - Tide (above MLLW)
TIDE
ft
2024-05-26 01:50 pm SE 5.8 7.8 1.3 134.9ENE29.91- 65.1 65.7 65.1---
2024-05-26 01:40 pm SE 5.8 5.8----29.92- 65.1 65.8 65.1---
2024-05-26 01:30 pm SE 3.9 5.8----29.91- 65.1 65.8 65.1---
2024-05-26 01:20 pm E 5.8 5.8 1.3 145.0NNE29.92- 64.9 65.7 64.9---
2024-05-26 01:10 pm E 5.8 5.8 1.3-5.0NNE29.92- 65.1 65.7 65.1---
2024-05-26 01:00 pm E 3.9 5.8----29.93+0.03 65.1 65.5 65.1---
2024-05-26 12:50 pm E 5.8 7.8 1.3 135.5NNE29.93- 64.9 65.5 64.9---
2024-05-26 12:40 pm E 7.8 9.7----29.92- 65.1 65.5 65.1---
2024-05-26 12:30 pm E 7.8 9.7----29.91- 65.3 65.3 65.3---
2024-05-26 12:20 pm E 7.8 7.8 1.3 145.3NNE29.91- 65.5 65.5 65.5---
2024-05-26 12:10 pm E 7.8 9.7----29.92- 65.3 64.9 65.3---
2024-05-26 12:00 pm E 7.8 7.8----29.91+0.02 65.3 64.8 65.3---
2024-05-26 11:50 am E 5.8 5.8 1.3 145.0 W29.92- 65.1 64.8 65.1---
2024-05-26 11:40 am E 5.8 7.8----29.92- 65.1 64.8 65.1---
2024-05-26 11:30 amESE 5.8 7.8----29.91- 64.9 64.2 64.9---
2024-05-26 11:20 amESE 5.8 7.8 1.3 145.0WSW29.91- 64.8 63.7 64.8---
2024-05-26 11:10 amESE 7.8 9.7 1.3-5.0WSW29.91- 64.9 64.6 64.9---
2024-05-26 11:00 amESE 7.8 9.7----29.91+0.00 65.5 64.8 65.5---
2024-05-26 10:50 amESE 5.8 7.8 1.3 145.2 SW29.91- 65.7 64.8 65.7---
2024-05-26 10:40 amESE 5.8 7.8----29.91- 65.5 64.4 65.5---
2024-05-26 10:30 amESE 5.8 7.8----29.90- 65.3 64.2 65.3---
2024-05-26 10:20 amESE 5.8 5.8 1.3 55.1SSE29.91- 65.5 63.7 65.5---
2024-05-26 10:10 am E 3.9 5.8 1.3-5.1SSE29.90- 65.3 64.2----
2024-05-26 10:00 amESE 3.9 5.8----29.90+0.00 65.3 63.9----
2024-05-26 09:50 am E 5.8 5.8 1.3 145.3 SE29.90- 65.3 63.0----
2024-05-26 09:40 amESE 5.8 5.8----29.89- 65.3 62.6----
2024-05-26 09:30 amESE 5.8 5.8----29.89- 65.3 63.3----
2024-05-26 09:20 amESE 5.8 7.8 1.3 135.2NNE29.90- 65.3 63.0----
2024-05-26 09:10 am E 5.8 7.8 1.3-5.2NNE29.90- 65.5 63.0----
2024-05-26 09:00 am E 5.8 7.8----29.89+0.01 65.3 63.0----
2024-05-26 08:50 am E 5.8 5.8 1.3 95.5 S29.90- 65.5 63.5----
2024-05-26 08:40 am E 5.8 5.8----29.91- 65.8 63.7----
2024-05-26 08:30 am E 3.9 5.8----29.91- 65.8 63.5----
2024-05-26 08:20 amESE 1.9 3.9 1.3 145.4 NE29.92- 66.0 63.1----
2024-05-26 08:10 am SE 1.9 3.9 1.3-5.4 NE29.92- 66.2 63.0 66.2---
2024-05-26 08:00 am- 0.0 1.9----29.92+0.06 66.4 62.8----
2024-05-26 07:50 am- 0.0 1.9 1.3 145.6NNE29.91- 66.0 62.8----
2024-05-26 07:40 amNNE 1.9 1.9----29.90- 66.0 63.0----
2024-05-26 07:30 amENE 1.9 1.9----29.90- 66.0 63.1----
2024-05-26 07:20 am N 3.9 5.8 1.3 135.7WSW29.90- 66.0 63.1----
2024-05-26 07:10 amNNW 5.8 7.8 1.3-5.7WSW29.90- 66.0 63.0----
2024-05-26 07:00 am N 3.9 5.8----29.90+0.04 66.0 62.8----
2024-05-26 06:50 am N 3.9 5.8 1.3 136.0SSE29.89- 65.8 62.8----
2024-05-26 06:40 amNNW 3.9 5.8----29.89- 65.7 62.8----
2024-05-26 06:30 am NW 1.9 3.9----29.89- 65.7 62.8----
2024-05-26 06:20 amWNW 3.9 3.9 1.3 146.0 SE29.88- 65.8 62.6----
2024-05-26 06:10 am W 1.9 3.9 1.3-6.0 SE29.88- 65.7 62.8----
2024-05-26 06:00 amWNW 3.9 5.8----29.88+0.02 65.7 63.1----
2024-05-26 05:50 am W 1.9 5.8 1.3 145.8 NW29.88- 65.7 63.0----
2024-05-26 05:40 amWSW 1.9 3.9----29.88- 65.5 62.8----
2024-05-26 05:30 am S 1.9 3.9----29.87- 65.5 63.0----
2024-05-26 05:20 am- 0.0 1.9 1.3 136.0ESE29.87- 65.3 63.5----
2024-05-26 05:10 amSSW 1.9 3.9 1.3-6.0ESE29.87- 64.9 64.0----
2024-05-26 05:00 am S 3.9 3.9----29.86+0.00 64.9 64.4----
2024-05-26 04:50 amSSE 3.9 5.8 1.3 146.1 SE29.85- 64.9 64.8----
2024-05-26 04:40 amSSE 3.9 5.8----29.85- 65.1 64.6----
2024-05-26 04:30 amSSE 5.8 5.8----29.85- 65.1 64.4----
2024-05-26 04:20 amSSE 3.9 5.8 1.0 146.0 E29.85- 65.3 64.9 65.3---
2024-05-26 04:10 am S 3.9 3.9 1.0-6.0 E29.86- 64.9 64.9 64.9---
2024-05-26 04:00 am S 1.9 3.9----29.85-0.01 64.9 64.4 64.9---
2024-05-26 03:50 amSSE 3.9 3.9 1.3 146.5 E29.85- 64.8 63.7 64.8---
2024-05-26 03:40 amSSE 3.9 3.9----29.85- 64.9 63.3 64.9---
2024-05-26 03:30 am S 3.9 3.9----29.85- 64.9 62.8 64.9---
2024-05-26 03:20 amSSW 1.9 3.9 1.3 145.3 E29.85- 64.9 62.8 64.9---
2024-05-26 03:10 amSSW 3.9 3.9----29.86- 64.9 62.6 64.9---
2024-05-26 03:00 am S 3.9 3.9----29.86-0.02 64.9 62.1 64.9---
2024-05-26 02:50 am S 3.9 5.8 1.3 146.5ESE29.86- 64.9 61.9 64.9---
2024-05-26 02:40 am S 5.8 5.8----29.86- 64.9 62.2 64.9---
2024-05-26 02:30 am S 3.9 5.8----29.85- 64.9 62.4 64.9---
2024-05-26 02:20 am S 3.9 5.8 1.0 146.3ENE29.86- 64.9 62.6 64.9---
2024-05-26 02:10 am S 5.8 5.8 1.0-6.3ENE29.85- 64.8 62.2 64.8---
2024-05-26 02:00 am S 3.9 3.9----29.85-0.03 64.8 62.2 64.8---
2024-05-26 01:50 am S 3.9 3.9 1.0 146.0ESE29.85- 65.1 61.5 65.1---
2024-05-26 01:40 amSSE 3.9 3.9----29.85- 65.1 60.1 65.1---
2024-05-26 01:30 amSSE 3.9 5.8----29.85- 65.1 60.3 65.1---
2024-05-26 01:20 am S 5.8 5.8 1.0 145.9ENE29.86- 65.1 60.1 65.1---
2024-05-26 01:10 am S 3.9 3.9----29.86- 65.1 59.9 65.1---
2024-05-26 01:00 am S 3.9 5.8----29.87-0.01 65.3 59.5 65.3---
2024-05-26 12:50 am S 5.8 5.8 1.0 145.9SSE29.86- 65.3 59.2 65.3---
2024-05-26 12:40 am S 3.9 5.8----29.87- 65.3 59.0 65.3---
2024-05-26 12:30 am S 3.9 3.9----29.87- 65.3 58.8 65.3---
2024-05-26 12:20 am S 3.9 3.9 1.0 145.7 SE29.88- 65.5 58.8 65.5---
2024-05-26 12:10 am S 1.9 3.9 1.0-5.7 SE29.88- 65.5 59.0 65.5---
2024-05-26 12:00 am S 3.9 3.9----29.88+0.02 65.5 59.5 65.5---
2024-05-25 11:50 pm S 3.9 3.9 1.3 145.2 NE29.88- 65.5 59.9 65.5---
2024-05-25 11:40 pm S 3.9 5.8----29.88- 65.7 61.3 65.7---
2024-05-25 11:30 pm S 3.9 3.9----29.88- 66.2 60.3 66.2---
2024-05-25 11:20 pm S 3.9 3.9 1.0 145.4 E29.88- 66.4 61.2 66.4---
2024-05-25 11:10 pm S 1.9 3.9 1.0-5.4 E29.89- 66.0 61.3 66.0---
2024-05-25 11:00 pm SE 1.9 1.9----29.89+0.04 66.0 61.7 66.0---
2024-05-25 10:50 pmSSE 1.9 1.9 1.3 145.6ENE29.88- 66.0 61.9 66.0---
2024-05-25 10:40 pm- 0.0 1.9----29.88- 65.7 62.8 65.7---
2024-05-25 10:30 pmSSE 1.9 1.9----29.88- 65.8 63.7 65.8---
2024-05-25 10:20 pmSSE 1.9 3.9 1.0 145.1 NE29.88- 65.8 63.7 65.8---
2024-05-25 10:10 pmSSE 3.9 5.8 1.0-5.1 NE29.88- 65.8 63.3 65.8---
2024-05-25 10:00 pmSSE 5.8 7.8----29.88+0.04 65.8 63.3 65.8---
2024-05-25 09:50 pm S 5.8 5.8 1.3 145.0 SW29.87- 65.8 63.0 65.8---
2024-05-25 09:40 pm S 5.8 7.8----29.87- 65.8 62.8 65.8---
2024-05-25 09:30 pm S 5.8 5.8----29.87- 65.8 62.8 65.8---
2024-05-25 09:20 pm S 5.8 5.8 1.3 145.0ENE29.86- 66.0 63.1 66.0---
2024-05-25 09:10 pmSSE 5.8 5.8 1.3-5.0ENE29.86- 66.0 63.0 66.0---
2024-05-25 09:00 pmSSE 5.8 5.8----29.85+0.02 66.2 62.6 66.2---
2024-05-25 08:50 pmSSE 5.8 7.8 1.3 144.7 NE29.85- 66.4 62.2 66.4---
2024-05-25 08:40 pmSSE 5.8 5.8----29.85- 66.4 62.2 66.4---
2024-05-25 08:30 pm S 3.9 5.8----29.85- 66.6 61.7 66.6---
2024-05-25 08:20 pm S 3.9 5.8 1.3 144.6 NE29.85- 66.7 61.9 66.7---
2024-05-25 08:10 pm S 5.8 5.8 1.3-4.6 NE29.85- 66.9 62.8 66.9---
2024-05-25 08:00 pm S 3.9 5.8----29.85+0.00 66.9 63.1 66.9---
2024-05-25 07:50 pm S 3.9 5.8 1.3 144.5SSW29.84- 66.9 63.3 66.7---
2024-05-25 07:40 pm S 3.9 3.9----29.85- 67.3 63.9 67.1---
2024-05-25 07:20 pmSSE 3.9 3.9 1.3 144.8 NE29.84- 67.6 62.2 67.1---
2024-05-25 07:10 pmSSW 1.9 3.9 1.3-4.8 NE29.84- 67.8 62.1 67.3---
2024-05-25 07:00 pmSSW 3.9 3.9----29.84-0.02 67.8 62.4 67.1---
2024-05-25 06:50 pmSSW 3.9 5.8 1.3 144.6 NE29.84- 67.8 61.3 67.1---
2024-05-25 06:40 pm S 3.9 5.8----29.83- 67.6 61.5 67.1---
2024-05-25 06:30 pm S 3.9 5.8----29.84- 67.6 62.4 67.1---
2024-05-25 06:20 pm S 5.8 7.8 1.3 94.6 E29.83- 67.8 65.3 67.1---
2024-05-25 06:10 pmSSE 5.8 7.8 1.3-4.6 E29.84- 68.0 65.3 67.3---
2024-05-25 06:00 pmSSE 5.8 7.8----29.83-0.03 68.2 65.1 67.3---
2024-05-25 05:50 pmSSE 5.8 5.8 1.3 144.5 E29.83- 68.2 64.6 67.3---
2024-05-25 05:40 pmSSE 5.8 7.8----29.84- 68.4 62.4 67.5---
2024-05-25 05:30 pm S 5.8 7.8----29.84- 68.4 62.8 67.5---
2024-05-25 05:20 pmSSE 5.8 5.8 1.3 54.0 SE29.84- 68.5 63.9 67.6---
2024-05-25 05:10 pmSSE 5.8 5.8 1.3-4.0 SE29.84- 68.5 63.7 67.6---
2024-05-25 05:00 pmSSE 5.8 5.8----29.85-0.03 68.5 63.3 67.5---
2024-05-25 04:50 pm S 5.8 5.8 1.3 144.5SSW29.85- 68.7 63.9 67.6---
2024-05-25 04:40 pm S 5.8 7.8----29.85- 68.7 63.5 67.8---
2024-05-25 04:30 pm S 5.8 5.8----29.85- 68.5 63.1 67.6---
2024-05-25 04:20 pm S 5.8 5.8 1.3 144.8 E29.85- 68.5 62.1 67.6---
2024-05-25 04:10 pm S 5.8 7.8----29.86- 68.4 61.9 67.5---
2024-05-25 04:00 pm S 5.8 7.8----29.86-0.01 68.5 61.9 67.5---
2024-05-25 03:50 pm S 5.8 5.8 1.3 94.6ESE29.86- 68.7 62.1 67.8---
2024-05-25 03:40 pm S 5.8 7.8----29.86- 68.4- 67.5---
2024-05-25 03:30 pm S 5.8 7.8----29.86- 68.4 61.9 67.5---
2024-05-25 03:20 pm S 7.8 7.8 1.3 144.8SSW29.86- 68.4 61.9 67.5---
2024-05-25 03:10 pm S 5.8 7.8 1.3-4.8SSW29.86- 68.5 61.9 67.5---
2024-05-25 03:00 pm S 5.8 7.8----29.86-0.01 68.5 61.9 67.6---
2024-05-25 02:50 pm S 5.8 5.8 1.3 144.4SSW29.86- 68.4 61.9 67.5---
2024-05-25 02:40 pm S 5.8 7.8----29.87- 68.4 61.9 67.5---
2024-05-25 02:30 pm S 5.8 7.8----29.88- 68.2 61.7 67.3---
2024-05-25 02:20 pm S 5.8 7.8 1.3 154.7 S29.88- 68.2 61.7 67.3---
2024-05-25 02:10 pm S 5.8 5.8 1.3-4.7 S29.87- 68.4 61.9 67.3---
2024-05-25 02:00 pm S 5.8 9.7----29.87-0.01 68.4 61.7 67.3---
2024-05-25 01:50 pmSSW 5.8 7.8 1.3 144.7ESE29.88- 68.2 61.7 67.3---

Detailed Wave Summary
for 44009 as of (1:40 pm EDT)
1740 GMT on 05/26/2024:

These wave data are displayed in rounded times.

     

Click on the graph icon in the table below to see a time series plot of the last five days of that observation.

5-day plot - Significant Wave Height Significant Wave Height (WVHT): 1.3 ft
5-day plot - Swell Height Swell Height (SwH): 1.0 ft
5-day plot - Swell Period Swell Period (SwP): 12.9 sec
5-day plot - Swell Direction Swell Direction (SwD):ENE
5-day plot - Wind Wave Height Wind Wave Height (WWH): 0.7 ft
5-day plot - Wind Wave Period Wind Wave Period (WWP): 3.1 sec
5-day plot - Wind Wave Direction Wind Wave Direction (WWD): SW
5-day plot - Average Wave Period Average Wave Period (APD): 4.9 sec
Previous observations
TIME
(EDT)
5-day plot - Wave Height
WVHT
ft
5-day plot - Swell Height
SwH
ft
5-day plot - Swell Period
SwP
sec
5-day plot - Swell Direction
SwD
 
5-day plot - Wind Wave Height
WWH
ft
5-day plot - Wind Wave Period
WWP
sec
5-day plot - Wind Wave Direction
WWD
 
5-day plot - Wave Steepness
STEEPNESS
 
5-day plot - Average Wave Period
APD
sec
2024-05-26 01:10 pm 1.3 1.3 13.8NNE 0.7 3.8 S N/A 5.0
2024-05-26 12:40 pm 1.3 1.3 12.9NNE 0.3 3.8 S N/A 5.5
2024-05-26 12:10 pm 1.3 1.3 13.8NNE 0.3 4.0 SSE N/A 5.3
2024-05-26 11:40 am 1.3 1.0 13.8 W 0.7 3.0 SW N/A 5.0
2024-05-26 11:10 am 1.3 1.0 13.8WSW 0.7 4.2 S N/A 5.0
2024-05-26 10:40 am 1.3 1.0 13.8 SW 0.3 3.4 S N/A 5.2
2024-05-26 10:10 am 1.3 1.3 5.0SSE 0.7 3.6 SSE N/A 5.1
2024-05-26 09:40 am 1.3 1.0 13.8 SE 0.3 3.8 S N/A 5.3
2024-05-26 09:10 am 1.3 1.3 12.9NNE 0.7 3.8 SE N/A 5.2
2024-05-26 08:40 am 1.3 1.3 9.1 S 0.3 3.7 SSE N/A 5.5
2024-05-26 08:10 am 1.3 1.0 13.8 NE 0.3 3.7 S N/A 5.4
2024-05-26 07:40 am 1.3 1.3 13.8NNE 0.3 4.0 SSE N/A 5.6
2024-05-26 07:10 am 1.3 1.0 12.9WSW 0.3 3.6 SSE N/A 5.7
2024-05-26 06:40 am 1.3 1.3 12.9SSE 0.3 3.8 SSE N/A 6.0
2024-05-26 06:10 am 1.3 1.0 13.8 SE 0.3 4.0 SSE N/A 6.0
2024-05-26 05:40 am 1.3 1.0 13.8 NW 0.3 3.4 SSE N/A 5.8
2024-05-26 05:10 am 1.3 1.0 12.9ESE 0.3 3.7 SSE N/A 6.0
2024-05-26 04:40 am 1.3 1.0 13.8 SE 0.3 3.3 SE N/A 6.1
2024-05-26 04:10 am 1.0 1.0 13.8 E 0.3 3.7 SSE N/A 6.0
2024-05-26 03:40 am 1.3 1.0 13.8 E 0.3 4.0 SSE N/A 6.5
2024-05-26 03:10 am 1.3 1.3 13.8 E 0.3 2.7 W N/A 5.3
2024-05-26 02:40 am 1.3 1.0 13.8ESE 0.3 2.9 SSE N/A 6.5
2024-05-26 02:10 am 1.0 1.0 13.8ENE 0.3 3.6 SSE N/A 6.3
2024-05-26 01:40 am 1.0 1.0 13.8ESE 0.3 3.3 S N/A 6.0
2024-05-26 01:10 am 1.0 1.0 13.8ENE 0.3 3.2 S N/A 5.9
2024-05-26 12:40 am 1.0 1.0 13.8SSE 0.3 3.6 S N/A 5.9
2024-05-26 12:10 am 1.0 1.0 13.8 SE 0.3 3.7 SE N/A 5.7
2024-05-25 11:40 pm 1.3 1.0 13.8 NE 0.7 2.9 E N/A 5.2
2024-05-25 11:10 pm 1.0 1.0 13.8 E 0.3 3.8 SSE N/A 5.4
2024-05-25 10:40 pm 1.3 1.0 13.8ENE 0.3 3.6 SSW N/A 5.6
2024-05-25 10:10 pm 1.0 1.0 13.8 NE 0.3 3.8 SSE N/A 5.1
2024-05-25 09:40 pm 1.3 1.0 13.8 SW 0.7 4.0 SSE N/A 5.0
2024-05-25 09:10 pm 1.3 1.0 13.8ENE 0.7 3.8 SSE N/A 5.0
2024-05-25 08:40 pm 1.3 1.0 13.8 NE 0.7 4.0 SE N/A 4.7
2024-05-25 08:10 pm 1.3 1.0 13.8 NE 0.7 3.8 ESE N/A 4.6
2024-05-25 07:40 pm 1.3 1.0 13.8SSW 0.7 3.7 SSE N/A 4.5
2024-05-25 07:10 pm 1.3 1.0 13.8 NE 0.7 3.8 SSE N/A 4.8
2024-05-25 06:40 pm 1.3 1.0 13.8 NE 0.7 4.0 SSE N/A 4.6
2024-05-25 06:10 pm 1.3 1.0 9.1 E 0.7 3.7 SSE N/A 4.6
2024-05-25 05:40 pm 1.3 1.0 13.8 E 0.7 4.0 SSE N/A 4.5
2024-05-25 05:10 pm 1.3 1.0 4.8 SE 0.7 2.5 WSW N/A 4.0
2024-05-25 04:40 pm 1.3 1.0 13.8SSW 0.7 4.0 S N/A 4.5
2024-05-25 04:10 pm 1.3 1.0 13.8 E 0.7 4.0 SSE N/A 4.8
2024-05-25 03:40 pm 1.3 1.0 9.1ESE 0.7 3.6 S N/A 4.6
2024-05-25 03:10 pm 1.3 1.3 13.8SSW 0.7 3.7 S N/A 4.8
2024-05-25 02:40 pm 1.3 1.3 13.8SSW 0.7 4.0 S N/A 4.4
2024-05-25 02:10 pm 1.3 1.3 14.8 S 0.7 3.8 S N/A 4.7

Plot of wave energy versus frequency (and period)